Location: Bittkow
(50.3000°N, 19.0000°E)
Time: 15:24:28
(UTC+00:00)

Cosmos 1937 Rocket - Pass Details

Date: 19 September 2020
Orbit: 747 x 779 km, 74.0° (Epoch: 27 October)

Event Time Altitude Azimuth Distance (km) Brightness Sun altitude
Rises 03:35:55 0° 333° (NNW) 3,215 6.6 -8.8°
Reaches altitude 10° 03:38:18 10° 330° (NNW) 2,282 5.8 -8.4°
Maximum altitude 03:43:24 62° 251° (WSW) 846 3.5 -7.6°
Drops below altitude 10° 03:48:26 10° 172° (S) 2,260 5.9 -6.8°
Sets 03:50:48 0° 169° (S) 3,180 6.7 -6.4°
